TimePST,TemperatureF,Dew PointF,Humidity,Sea Level PressureIn,VisibilityMPH,Wind Direction,Wind SpeedMPH,Gust SpeedMPH,PrecipitationIn,Events,Conditions,WindDirDegrees,DateUTC
12:10 AM,28.4,28.4,100,30.33,10.0,Calm,Calm,-,N/A,,Clear,0,2013-02-03 08:10:00
12:30 AM,28.4,28.4,100,30.33,10.0,WNW,3.5,-,N/A,,Clear,290,2013-02-03 08:30:00
12:50 AM,28.4,28.4,100,30.33,10.0,Calm,Calm,-,N/A,,Clear,0,2013-02-03 08:50:00
1:10 AM,28.4,28.4,100,30.33,10.0,West,3.5,-,N/A,,Clear,270,2013-02-03 09:10:00
1:30 AM,28.4,28.4,100,30.32,9.0,Calm,Calm,-,N/A,,Clear,0,2013-02-03 09:30:00
1:50 AM,28.4,28.4,100,30.33,10.0,WNW,3.5,-,N/A,,Clear,290,2013-02-03 09:50:00
2:10 AM,28.4,28.4,100,30.32,10.0,WNW,4.6,-,N/A,,Clear,290,2013-02-03 10:10:00
2:30 AM,28.4,26.6,93,30.32,10.0,Calm,Calm,-,N/A,,Clear,0,2013-02-03 10:30:00
2:50 AM,28.4,26.6,93,30.32,7.0,Calm,Calm,-,N/A,,Mostly Cloudy,0,2013-02-03 10:50:00
3:10 AM,28.4,26.6,93,30.32,9.0,Calm,Calm,-,N/A,,Scattered Clouds,0,2013-02-03 11:10:00
3:30 AM,28.4,26.6,93,30.32,10.0,West,3.5,-,N/A,,Clear,270,2013-02-03 11:30:00
3:50 AM,26.6,26.6,100,30.32,8.0,Calm,Calm,-,N/A,,Mostly Cloudy,0,2013-02-03 11:50:00
4:10 AM,26.6,26.6,100,30.32,10.0,Calm,Calm,-,N/A,,Overcast,0,2013-02-03 12:10:00
4:30 AM,28.4,26.6,93,30.32,10.0,West,3.5,-,N/A,,Overcast,260,2013-02-03 12:30:00
5:10 AM,28.4,28.4,100,30.32,3.0,West,3.5,-,N/A,,Overcast,260,2013-02-03 13:10:00
5:30 AM,28.4,28.4,100,30.32,4.0,Calm,Calm,-,N/A,,Overcast,0,2013-02-03 13:30:00
5:50 AM,28.4,28.4,100,30.32,6.0,Calm,Calm,-,N/A,,Overcast,0,2013-02-03 13:50:00
6:10 AM,28.4,28.4,100,30.32,10.0,West,4.6,-,N/A,,Overcast,270,2013-02-03 14:10:00
6:30 AM,28.4,28.4,100,30.32,0.5,West,3.5,-,N/A,,Overcast,270,2013-02-03 14:30:00
6:50 AM,28.4,28.4,100,30.32,0.5,Calm,Calm,-,N/A,,Overcast,0,2013-02-03 14:50:00
7:10 AM,28.4,28.4,100,30.32,10.0,NW,3.5,-,N/A,,Overcast,320,2013-02-03 15:10:00
7:30 AM,28.4,28.4,100,30.33,0.5,Calm,Calm,-,N/A,,Overcast,0,2013-02-03 15:30:00
7:50 AM,28.4,28.4,100,30.33,0.5,West,3.5,-,N/A,,Overcast,270,2013-02-03 15:50:00
8:10 AM,28.4,28.4,100,30.34,1.5,West,3.5,-,N/A,,Overcast,280,2013-02-03 16:10:00
8:30 AM,28.4,28.4,100,30.34,3.0,Calm,Calm,-,N/A,,Overcast,0,2013-02-03 16:30:00
8:50 AM,30.2,28.4,93,30.34,2.5,Calm,Calm,-,N/A,,Overcast,0,2013-02-03 16:50:00
9:10 AM,32.0,30.2,93,30.34,0.2,Calm,Calm,-,N/A,,Overcast,0,2013-02-03 17:10:00
9:30 AM,32.0,32.0,100,30.35,1.0,Calm,Calm,-,N/A,,Overcast,0,2013-02-03 17:30:00
9:50 AM,32.0,32.0,100,30.35,2.5,Calm,Calm,-,N/A,,Overcast,0,2013-02-03 17:50:00
10:10 AM,32.0,32.0,100,30.34,4.0,Calm,Calm,-,N/A,,Overcast,0,2013-02-03 18:10:00
10:30 AM,33.8,32.0,93,30.34,8.0,Calm,Calm,-,N/A,,Overcast,0,2013-02-03 18:30:00
10:50 AM,35.6,32.0,87,30.33,10.0,Calm,Calm,-,N/A,,Scattered Clouds,0,2013-02-03 18:50:00
11:10 AM,37.4,33.8,87,30.33,10.0,Calm,Calm,-,N/A,,Clear,0,2013-02-03 19:10:00
11:30 AM,39.2,33.8,81,30.32,10.0,Calm,Calm,-,N/A,,Clear,0,2013-02-03 19:30:00
11:50 AM,41.0,33.8,76,30.31,10.0,Calm,Calm,-,N/A,,Clear,0,2013-02-03 19:50:00
12:10 PM,44.6,32.0,61,30.29,10.0,Calm,Calm,-,N/A,,Clear,0,2013-02-03 20:10:00
12:30 PM,44.6,32.0,61,30.28,10.0,Calm,Calm,-,N/A,,Clear,0,2013-02-03 20:30:00
12:50 PM,46.4,32.0,57,30.26,10.0,Calm,Calm,-,N/A,,Clear,0,2013-02-03 20:50:00
1:10 PM,48.2,32.0,54,30.25,10.0,South,3.5,-,N/A,,Clear,170,2013-02-03 21:10:00
1:30 PM,50.0,32.0,50,30.25,10.0,Calm,Calm,-,N/A,,Clear,0,2013-02-03 21:30:00
1:50 PM,51.8,32.0,47,30.23,10.0,Calm,Calm,-,N/A,,Clear,0,2013-02-03 21:50:00
2:10 PM,53.6,30.2,41,30.23,10.0,Calm,Calm,-,N/A,,Clear,0,2013-02-03 22:10:00
2:30 PM,53.6,32.0,44,30.23,10.0,Calm,Calm,-,N/A,,Clear,0,2013-02-03 22:30:00
2:50 PM,55.4,32.0,41,30.22,10.0,Calm,Calm,-,N/A,,Clear,0,2013-02-03 22:50:00
3:10 PM,53.6,37.4,54,30.22,10.0,Calm,Calm,-,N/A,,Clear,0,2013-02-03 23:10:00
3:30 PM,53.6,35.6,51,30.22,10.0,Calm,Calm,-,N/A,,Clear,0,2013-02-03 23:30:00
4:10 PM,51.8,37.4,58,30.21,10.0,Calm,Calm,-,N/A,,Clear,0,2013-02-04 00:10:00
4:30 PM,46.4,37.4,71,30.21,10.0,Calm,Calm,-,N/A,,Clear,0,2013-02-04 00:30:00
4:50 PM,44.6,35.6,71,30.21,9.0,Calm,Calm,-,N/A,,Clear,0,2013-02-04 00:50:00
5:10 PM,44.6,35.6,71,30.22,10.0,Calm,Calm,-,N/A,,Clear,0,2013-02-04 01:10:00
5:30 PM,42.8,33.8,70,30.22,10.0,Calm,Calm,-,N/A,,Clear,0,2013-02-04 01:30:00
5:50 PM,41.0,32.0,70,30.23,10.0,Calm,Calm,-,N/A,,Clear,0,2013-02-04 01:50:00
6:10 PM,39.2,32.0,75,30.24,10.0,Calm,Calm,-,N/A,,Clear,0,2013-02-04 02:10:00
6:30 PM,37.4,32.0,81,30.24,9.0,West,4.6,-,N/A,,Clear,260,2013-02-04 02:30:00
6:50 PM,37.4,32.0,81,30.24,10.0,WNW,4.6,-,N/A,,Clear,290,2013-02-04 02:50:00
7:10 PM,39.2,32.0,75,30.24,10.0,West,3.5,-,N/A,,Clear,280,2013-02-04 03:10:00
7:30 PM,35.6,32.0,87,30.25,10.0,Calm,Calm,-,N/A,,Clear,0,2013-02-04 03:30:00
7:50 PM,35.6,32.0,87,30.25,10.0,Calm,Calm,-,N/A,,Clear,0,2013-02-04 03:50:00
8:10 PM,33.8,32.0,93,30.26,10.0,Calm,Calm,-,N/A,,Clear,0,2013-02-04 04:10:00
8:30 PM,33.8,32.0,93,30.26,10.0,Calm,Calm,-,N/A,,Clear,0,2013-02-04 04:30:00
8:50 PM,33.8,32.0,93,30.26,10.0,Calm,Calm,-,N/A,,Clear,0,2013-02-04 04:50:00
9:10 PM,33.8,32.0,93,30.26,10.0,West,3.5,-,N/A,,Clear,280,2013-02-04 05:10:00
9:30 PM,35.6,32.0,87,30.26,10.0,Calm,Calm,-,N/A,,Clear,0,2013-02-04 05:30:00
9:50 PM,33.8,32.0,93,30.27,9.0,West,3.5,-,N/A,,Clear,280,2013-02-04 05:50:00
10:10 PM,33.8,32.0,93,30.26,5.0,Calm,Calm,-,N/A,,Clear,0,2013-02-04 06:10:00
10:30 PM,32.0,32.0,100,30.26,9.0,Calm,Calm,-,N/A,,Clear,0,2013-02-04 06:30:00
10:50 PM,32.0,32.0,100,30.26,4.0,Calm,Calm,-,N/A,,Clear,0,2013-02-04 06:50:00
11:10 PM,32.0,32.0,100,30.27,8.0,Calm,Calm,-,N/A,,Clear,0,2013-02-04 07:10:00
11:30 PM,32.0,32.0,100,30.27,10.0,Calm,Calm,-,N/A,,Clear,0,2013-02-04 07:30:00
11:50 PM,32.0,32.0,100,30.26,9.0,Calm,Calm,-,N/A,,Clear,0,2013-02-04 07:50:00